Location: Apeadero de Los Molinos-Guadarrama
(40.7091°N, 4.0689°W)
Time: 13:37:38
(UTC+00:00)

Meteor 1-27 Rocket - Pass Details

Date: 14 May 2021
Orbit: 829 x 910 km, 81.3° (Epoch: 18 June)

Event Time Altitude Azimuth Distance (km) Brightness Sun altitude
Exits shadow 21:38:33 35° 168° (SSE) 1,403 4.4 -20.5°
Maximum altitude 21:41:02 68° 96° (E) 964 3.8 -20.8°
Drops below altitude 10° 21:46:55 10° 15° (NNE) 2,598 6.7 -21.5°
Sets 21:49:25 0° 13° (NNE) 3,548 7.5 -21.8°
